Location: Windsor
(43.2292°N, 89.3015°W)
Time: 11:21:59
(UTC+00:00)

NOAA 15 - Visible Passes

Search period start: 30 June 2022 00:00
Search period end: 10 July 2022 00:00
Orbit: 798 x 811 km, 98.6° (Epoch: 30 June)

Date Brightness Start Highest point End Pass type
(mag) Time Alt. Az. Time Alt. Az. Time Alt. Az.
01 Jul 7.6 02:35:48 10° W 02:36:59 11° W 02:38:11 10° WNW visible
05 Jul 7.6 02:34:10 10° WSW 02:35:38 11° W 02:37:07 10° WNW visible
09 Jul 7.5 02:32:33 10° WSW 02:34:16 11° W 02:36:00 10° WNW visible
